Weather in Altyshevo

Russia / Chuvash Republic     54°54′45″N   46°41′44″E
temp.,
°C
wind,
m/s
gust,
m/s
humid.,
%
clouds,
%
prec.,
mm/h
press.,
hPa
HPBL,
m
6 may, thu
thu600:00+4sw229129 0.0 101233
03:00+6ssw298775 0.0 1013242
06:00+7ssw2790100 0.4 1014218
09:00+13sw466952 0.4 1015588
12:00+17sw58535 0.1 10141782
15:00+17sw5856100 0.1 10141996
18:00+14ssw4968100 0.0 1014399
21:00+10sse388496 0.0 1014133
7 may, fri
fri700:00+10s41182100 0.0 1014249
03:00+9s31178100 0.0 1014266
06:00+10s41374100 0.0 1014408
09:00+14s51262100 0.0 1013716
12:00+16ssw61154100 0.0 10131863
15:00+16sw71260100 0.7 10131860
18:00+9nnw4892100 0.6 1015370
21:00+8nw149245 0.9 1017243
8 may, sat
sat800:00+5n11952 0.0 101810
03:00+4ne11930 0.0 101810
06:00+7ne24855 0.0 1018145
09:00+13ese35685 0.0 1017722
12:00+16sse5766100 0.1 10151291
15:00+18ssw3854100 0.1 10131600
18:00+16ssw247095 0.0 101287
21:00+12sse2284100 0.0 101239
9 may, sun
sun900:00+11sse41282100 0.0 1011291
03:00+13sse41567100 0.0 1010558
06:00+14s51370100 0.0 1010610
09:00+15sw4774100 0.1 1011808
12:00+12wnw4390100 1.8 1013537
15:00+8nnw4895100 7.2 1015418
18:00+8nnw3894100 1.8 1018525
21:00+7nnw3893100 2.4 1020479
10 may, mon
mon1000:00+7n2894100 0.4 1021436
03:00+7nnw2794100 0.8 1024391
06:00+6n3992100 0.0 1026405
09:00+8nne4885100 0.0 1027574
12:00+11nne4666100 0.0 1028942
15:00+14ne465742 0.0 10281149
18:00+13nne47645 0.0 1029448
21:00+7nne38802 0.0 1030142